TimeAKDT,TemperatureF,Dew PointF,Humidity,Sea Level PressureIn,VisibilityMPH,Wind Direction,Wind SpeedMPH,Gust SpeedMPH,PrecipitationIn,Events,Conditions,WindDirDegrees,DateUTC
12:53 AM,-6.0,-17.0,59,30.22,10.0,NNE,5.8,-,N/A,,Clear,30,2012-03-23 08:53:00
1:53 AM,-5.1,-16.1,59,30.21,10.0,NE,10.4,-,N/A,,Clear,50,2012-03-23 09:53:00
2:53 AM,-4.0,-15.0,59,30.19,10.0,North,9.2,-,N/A,,Clear,360,2012-03-23 10:53:00
3:53 AM,-8.0,-18.0,61,30.18,10.0,North,6.9,-,N/A,,Clear,360,2012-03-23 11:53:00
4:53 AM,-8.0,-18.0,61,30.16,10.0,NNE,6.9,-,N/A,,Clear,20,2012-03-23 12:53:00
5:53 AM,-9.0,-18.0,65,30.14,10.0,NNE,8.1,-,N/A,,Clear,20,2012-03-23 13:53:00
6:53 AM,-9.9,-18.9,65,30.13,10.0,North,8.1,-,N/A,,Clear,10,2012-03-23 14:53:00
7:53 AM,-13.0,-20.0,71,30.11,10.0,NNE,9.2,-,N/A,,Clear,30,2012-03-23 15:53:00
8:53 AM,-11.0,-18.9,68,30.10,10.0,NNE,5.8,-,N/A,,Partly Cloudy,20,2012-03-23 16:53:00
9:53 AM,-5.1,-15.0,62,30.08,10.0,NE,6.9,-,N/A,,Scattered Clouds,40,2012-03-23 17:53:00
10:53 AM,-0.0,-13.0,54,30.05,10.0,NE,4.6,-,N/A,,Scattered Clouds,40,2012-03-23 18:53:00
11:53 AM,5.0,-9.0,52,30.01,10.0,ENE,4.6,-,N/A,,Scattered Clouds,70,2012-03-23 19:53:00
12:53 PM,10.9,-7.1,44,29.99,10.0,NE,4.6,-,N/A,,Mostly Cloudy,40,2012-03-23 20:53:00
1:53 PM,16.0,-2.9,43,29.96,10.0,NNE,4.6,-,N/A,,Mostly Cloudy,30,2012-03-23 21:53:00
2:53 PM,19.0,-0.9,42,29.93,10.0,Calm,Calm,-,N/A,,Mostly Cloudy,0,2012-03-23 22:53:00
3:53 PM,21.0,-0.9,38,29.90,10.0,ENE,8.1,-,N/A,,Mostly Cloudy,60,2012-03-23 23:53:00
4:53 PM,21.9,-0.0,38,29.88,10.0,ENE,6.9,-,N/A,,Mostly Cloudy,70,2012-03-24 00:53:00
5:53 PM,21.0,3.0,46,29.87,10.0,NE,4.6,-,N/A,,Mostly Cloudy,40,2012-03-24 01:53:00
6:53 PM,19.0,3.9,52,29.87,10.0,NNE,5.8,-,N/A,,Mostly Cloudy,20,2012-03-24 02:53:00
7:53 PM,19.0,1.9,47,29.87,10.0,North,5.8,-,N/A,,Mostly Cloudy,350,2012-03-24 03:53:00
8:53 PM,19.9,3.0,48,29.87,10.0,North,6.9,-,N/A,,Mostly Cloudy,360,2012-03-24 04:53:00
9:53 PM,16.0,5.0,62,29.87,10.0,NNE,3.5,-,N/A,,Overcast,30,2012-03-24 05:53:00
10:53 PM,19.0,3.0,50,29.89,10.0,Calm,Calm,-,N/A,Snow,Light Snow,0,2012-03-24 06:53:00
11:53 PM,19.0,5.0,54,29.90,10.0,ENE,4.6,-,N/A,Snow,Light Snow,60,2012-03-24 07:53:00